Weather History for KACK - February, 2014

Change the Weather History Date:

Friday, February 28, 2014

  Actual Average Record
Temperature  
Mean Temperature 18 °F -  
Max Temperature 24 °F 40 °F 53 °F (1976)
Min Temperature 12 °F 28 °F 12 °F (1973)
Degree Days  
Heating Degree Days 47    
Moisture  
Dew Point -1 °F    
Average Humidity 45    
Maximum Humidity 68    
Minimum Humidity 28    
Precipitation  
Precipitation 0.00 in - - ()
Sea Level Pressure  
Sea Level Pressure 30.23 in    
Wind  
Wind Speed 15 mph (WNW)    
Max Wind Speed 23 mph    
Max Gust Speed 38 mph    
Visibility 10 miles    
Events Snow    
Averages and records for this station are not official NWS values.
T = Trace of Precipitation, MM = Missing Value Source: NWS Daily Summary

Daily Weather History Graph

Daily Weather History Graph

Search for Another Location

Airport or City:

Trip Planner

Search our weather history database for the weather conditions in past years. The results will help you decide how hot, cold, wet, or windy it might be!

Date:

Astronomy

Feb. 28, 2014 Rise Set
Actual Time 6:16 AM EST 5:29 PM EST
Civil Twilight 5:48 AM EST 5:57 PM EST
Nautical Twilight 5:16 AM EST 6:29 PM EST
Astronomical Twilight 4:44 AM EST 7:01 PM EST
Moon 5:28 AM EST (2/28) 5:03 PM EST (2/28)
Length of Visible Light 12h 09m
Length of Day
11h 13m
Waning Crescent, 1% of the Moon is Illuminated
Feb 28
Waning Crescent
Mar 1
New
Mar 8
First Quarter
Mar 16
Full
Mar 23
Last Quarter

Hourly Weather History & Observations

Time (EST) Temp. Windchill Dew Point Humidity Pressure Visibility Wind Dir Wind Speed Gust Speed Precip Events Conditions
12:16 AM 21.2 °F 5.6 °F 12.2 °F 68% 29.90 in 8.0 mi WNW 20.7 mph 33.4 mph 0.00 in Snow Light Snow
12:38 AM 19.4 °F 4.5 °F 8.6 °F 63% 29.91 in 10.0 mi NW 17.3 mph 27.6 mph 0.00 in   Partly Cloudy
12:53 AM 19.9 °F 3.2 °F 7.0 °F 57% 29.92 in 10.0 mi WNW 23.0 mph 28.8 mph 0.00 in   Partly Cloudy
1:53 AM 17.1 °F 0.1 °F -0.9 °F 45% 29.97 in 10.0 mi WNW 20.7 mph 34.5 mph N/A   Clear
2:53 AM 16.0 °F -0.9 °F -6.0 °F 38% 30.00 in 10.0 mi WNW 19.6 mph 38.0 mph N/A   Clear
3:53 AM 15.1 °F -1.6 °F -5.1 °F 41% 30.04 in 10.0 mi WNW 18.4 mph 26.5 mph N/A   Clear
4:53 AM 14.0 °F -3.9 °F -9.0 °F 35% 30.09 in 10.0 mi NW 20.7 mph 31.1 mph N/A   Clear
5:53 AM 14.0 °F -4.3 °F -4.0 °F 45% 30.12 in 10.0 mi WNW 21.9 mph 35.7 mph N/A   Clear
6:53 AM 14.0 °F -3.9 °F -2.9 °F 47% 30.16 in 10.0 mi NW 20.7 mph 28.8 mph N/A   Clear
7:53 AM 16.0 °F -0.9 °F -0.9 °F 47% 30.21 in 10.0 mi NW 19.6 mph 27.6 mph N/A   Clear
8:53 AM 17.1 °F 2.5 °F -0.0 °F 47% 30.24 in 10.0 mi NW 15.0 mph 23.0 mph N/A   Clear
9:53 AM 19.0 °F 4.5 °F -0.0 °F 43% 30.27 in 10.0 mi NW 16.1 mph 20.7 mph N/A   Clear
10:53 AM 21.0 °F 7.6 °F -0.9 °F 38% 30.30 in 10.0 mi NW 15.0 mph 20.7 mph N/A   Clear
11:53 AM 21.0 °F 10.6 °F -2.0 °F 36% 30.31 in 10.0 mi NNW 9.2 mph 19.6 mph N/A   Clear
12:53 PM 23.0 °F 13.9 °F -4.0 °F 31% 30.30 in 10.0 mi NW 8.1 mph 16.1 mph N/A   Clear
1:53 PM 24.1 °F 17.0 °F -5.1 °F 28% 30.31 in 10.0 mi North 5.8 mph - N/A   Clear
2:53 PM 23.0 °F 13.1 °F -2.9 °F 32% 30.35 in 10.0 mi WSW 9.2 mph - N/A   Clear
3:53 PM 23.0 °F 13.1 °F -4.0 °F 31% 30.36 in 10.0 mi WSW 9.2 mph - N/A   Clear
4:53 PM 21.9 °F 12.5 °F -2.9 °F 34% 30.37 in 10.0 mi WSW 8.1 mph - N/A   Clear
5:53 PM 19.9 °F 13.4 °F -2.9 °F 37% 30.38 in 10.0 mi WNW 4.6 mph - N/A   Clear
6:53 PM 19.9 °F - -0.9 °F 40% 30.39 in 10.0 mi Calm Calm - N/A   Clear
7:53 PM 18.0 °F - 1.0 °F 48% 30.41 in 10.0 mi Calm Calm - N/A   Clear
8:53 PM 14.0 °F - 1.9 °F 59% 30.43 in 10.0 mi Calm Calm - N/A   Clear
9:53 PM 12.0 °F - 1.0 °F 61% 30.43 in 10.0 mi Calm Calm - N/A   Clear
10:53 PM 12.0 °F - 1.9 °F 64% 30.44 in 10.0 mi Calm Calm - N/A   Clear
11:53 PM 15.1 °F - 3.0 °F 59% 30.45 in 10.0 mi Calm Calm - N/A   Clear